Regional Weather Roundup
Issued by NWS

Home | Current Version | Previous Version | Graphics & Text | Print | Product List | Glossary On
Versions: 1 2 3 4 5 6 7 8 9 10 11 12 13 14 15 16 17 18 19 20 21 22 23 24 25 26 27 28 29 30 31 32 33 34 35 36 37 38 39 40 41 42 43 44 45 46 47 48 49 50
000
ASUS43 KOAX 191610
RWRNE

WEATHER ROUNDUP FOR NEBRASKA
NATIONAL WEATHER SERVICE OMAHA NE
1100 AM CDT SAT APR 19 2014

NOTES: SATELLITE DATA IS BEING USED TO AUGMENT CLOUD COVER ABOVE
       12000 FEET.
       "FAIR" INDICATES FEW OR NO CLOUDS BELOW 12,000 FEET WITH NO
       SIGNIFICANT WEATHER AND/OR OBSTRUCTIONS TO VISIBILITY.

  * THESE STATIONS DO NOT REPORT WEATHER SUCH AS RAIN...SNOW OR FOG.

NEZ001>004-019>022-054>056-191700-
NEBRASKA PANHANDLE

CITY           SKY/WX    TMP DP  RH WIND       PRES   REMARKS
SCOTTSBLUFF    CLOUDY    53  28  38 NE7       30.07R
ALLIANCE       CLOUDY    51  24  34 NE16      30.05R
CHADRON        PTSUNNY   52  30  43 CALM      30.06R
KIMBALL        CLOUDY    48  31  52 NE10      30.05R
SIDNEY         CLOUDY    51  33  50 NE17      30.05R
$$

NEZ057>060-069>072-079>082-191700-
SOUTHWEST NEBRASKA

CITY           SKY/WX    TMP DP  RH WIND       PRES   REMARKS
NORTH PLATTE   PTSUNNY   59  43  55 NE14      29.99R
IMPERIAL       PTSUNNY   59  45  59 N16G28    29.97R
LEXINGTON      PTSUNNY   59  49  69 CALM      29.97R
MCCOOK         MOSUNNY   61  48  62 NE9       29.93S
OGALLALA       CLOUDY    58  35  42 NE22G28   30.01R
$$

NEZ005>010-023>029-035>040-094-191700-
NORTH CENTRAL NEBRASKA

CITY           SKY/WX    TMP DP  RH WIND       PRES   REMARKS
VALENTINE      PTSUNNY   56  28  34 N12       30.05R
AINSWORTH      PTSUNNY   57  34  40 N7G16     30.04R
BROKEN BOW     CLOUDY    59  47  64 N5        29.98R
O`NEILL        MOSUNNY   62  40  44 N7G17     30.01R
ORD            PTSUNNY   61  47  59 VRB3      29.98S
THEDFORD       PTSUNNY   60  34  37 NE14G20   30.03R
$$

NEZ041-046>049-061>064-073>077-083>087-191700-
SOUTH CENTRAL NEBRASKA

CITY           SKY/WX    TMP DP  RH WIND       PRES   REMARKS
GRAND ISLAND   PTSUNNY   65  48  54 S18       29.99S
AURORA         PTSUNNY   67  48  51 S22       29.99R
HASTINGS       PTSUNNY   66  47  50 S16G28    29.96F
HEBRON         PTSUNNY   68  48  48 S23G30    30.03S
HOLDREGE       PTSUNNY   63  47  56 S14G20    29.95S
KEARNEY *      CLOUDY    63  48  59 S15       29.97S
YORK           MOSUNNY   68  48  49 S23G29    30.01R
$$

NEZ011>018-030>034-042>045-191700-
NORTHEAST NEBRASKA

CITY           SKY/WX    TMP DP  RH WIND       PRES   REMARKS
NORFOLK        PTSUNNY   66  46  48 S22       29.99S
ALBION         MOSUNNY   64  46  52 SW15G21   30.00S
BLAIR          MOSUNNY   69  44  39 S21G29    30.04F
COLUMBUS *     PTSUNNY   66  46  48 SW15      30.02S
FREMONT        PTSUNNY   69  44  41 S18G26    30.03F
TEKAMAH        PTSUNNY   70  44  39 S26G35    30.04S
$$

NEZ050>053-065>068-078-088>093-191700-
SOUTHEAST NEBRASKA

CITY           SKY/WX    TMP DP  RH WIND       PRES   REMARKS
LINCOLN        MOSUNNY   71  47  42 S20G32    30.03F
OMAHA EPPLEY   PTSUNNY   69  43  38 S21G28    30.05F
BEATRICE       MOSUNNY   70  46  42 SW24G33   30.06R
NEBRASKA CITY  SUNNY     70  44  38 S16       30.09S
PLATTSMOUTH    SUNNY     70  40  33 S25       30.07F
$$

NEZ044-045-051>053-067-191700-
OMAHA AREA

CITY           SKY/WX    TMP DP  RH WIND       PRES   REMARKS
OMAHA EPPLEY   PTSUNNY   69  43  38 S21G28    30.05F
BLAIR          MOSUNNY   69  44  39 S21G29    30.04F
FREMONT        PTSUNNY   69  44  41 S18G26    30.03F
MILLARD        MOSUNNY   67  45  44 S17       30.05F
OFFUTT AFB     MOSUNNY   69  45  42 SE15      30.06F
PLATTSMOUTH    SUNNY     70  40  33 S25       30.07F
WAHOO          FAIR      70  44  38 SW23G30   30.04R
$$



USA.gov is the U.S. government's official web portal to all federal, state and local government web resources and services.